Showing default

LINUSS2, 55247

Orbit data source: Space-Track

LINUSS2, 55247 is a payload satellite owned by LMSS Denver (US) in GEO that was launched on Tue, 01 Nov 2022 UTC via an FALCON HEAVY launch vehicle from the Air Force Eastern Test Range (AFETR). Payload-class satellites include a variety of spacecraft equipped with specific instruments for various scientific and technological missions. These include communications satellites like Starlink; space stations such as the ISS; scientific satellites like the Hubble; Earth observation satellites from companies like Planet Labs, Umbra, and HawkEye 360; GPS; miniature CubeSats for education and research; and military/defense satellites.

Loading next visibility...
Identifier
55247, 2022-144H
Orbit
GEO
Country
Flag of USUS
Related business
Manufacturer
TYVAK/LMSSD
Mission
Operational Commercial Technology
Bus & Motor
CUBESAT 12U, Unknown motor
Mass
21.5 kg wet, 19.2 kg dry
Launch date (UTC)
2022-11-01 (3 years ago)
Launch vehicle
FALCON HEAVY
Launch site
Air Force Eastern Test Range (AFETR)
Object type
Payload
Rocket body
Debris
Shape & HBR
Box + 2 Pan, 0.7 m
Radar Cross Section
0.512 m²

Expand to show TLE details & history
Last TLE update: 9 hours ago

TLE from 9 hours ago
0 LINUSS2
1 55247U 22144H   25346.98349365 -.00000231  00000-0  00000-0 0  9990
2 55247   4.9243  65.4878 0006921 276.0775  63.1558  0.99053855  9862
Epoch: 2025-12-12T23:36Z
TLE epoch observation values (Epoch: 2025-12-12T23:36:13.851Z)
Latitude
-1.72453°
Longitude
-31.11704°
Altitude
36,118.072 km
Speed
3.063 km/s
True Right ascension
02h 59m 25s
True Declination
-1° 43' 22"
Sunlit
Object was in daylight at epoch
Visualization orbit readout
Latitude
Unknown
Longitude
Unknown
Altitude
Unknown
Speed
Unknown
Apparent Right ascension
Unknown
Apparent Declination
Unknown
Sunlit
N/A
Visualization observer readout
Local Sidereal Time
07:31:24
Azimuth
Unknown
Elevation
Unknown
Doppler factor
Unknown
Orbital elements
Apogee altitude
36,161.991 km
Perigee altitude
36,103.148 km
Semi-major axis
42,510.706 km
Eccentricity
0.00069
Inclination
4.9243°
RAAN
65.4878°
Arg. of periapsis
276.0775°
True anomaly
63.22659°
Mean anomaly
63.1558°
Eccentric anomaly
63.19119°
Mean motion
0.24763 °/min
Orbital period
1,453.81 mins
BSTAR
0
Loading maneuver chart data...
Computing Atmospheric mass density...
Loading historical data...
Loading historical data...
Loading historical data...
Loading historical data...
Loading historical data...
Loading historical data...
Loading historical data...

Documentation

Showing up to 5 results
|